Change the Weather History Date:

Monday, July 22, 2013

  Actual Average Record
Temperature  
Mean Temperature 65 °F -  
Max Temperature 75 °F 75 °F 91 °F (1999)
Min Temperature 55 °F 57 °F 50 °F (2007)
Growing Degree Days 15 (Base 50)    
Moisture  
Dew Point 57 °F    
Average Humidity 85    
Maximum Humidity 100    
Minimum Humidity 53    
Precipitation  
Precipitation 0.00 in 0.04 in - ()
Sea Level Pressure  
Sea Level Pressure 30.06 in    
Wind  
Wind Speed 3 mph ()    
Max Wind Speed 14 mph    
Max Gust Speed -    
Visibility 5.1 miles    
Events Fog    
Averages and records for this station are not official NWS values.
T = Trace of Precipitation, MM = Missing Value Source: Averaged Metar Reports

Daily Weather History Graph

Daily Weather History Graph

Search for Another Location

Airport or City:

Trip Planner

Search our weather history database for the weather conditions in past years. The results will help you decide how hot, cold, wet, or windy it might be!

Date:

Astronomy

Jul. 22, 2013 Rise Set
Actual Time 7:17 AM CEST 10:03 PM CEST
Civil Twilight 6:44 AM CEST 10:36 PM CEST
Nautical Twilight 6:03 AM CEST 11:17 PM CEST
Astronomical Twilight 5:15 AM CEST 12:04 AM CEST
Moon 9:37 PM CEST (7/22) 6:58 AM CEST (7/22)
Length of Visible Light 15h 51m
Length of Day
14h 46m
Full, 100% of the Moon is Illuminated
Jul 22
Full
Jul 22
Full
Jul 29
Last Quarter
Aug 6
New
Aug 14
First Quarter

Hourly Weather History & Observations

Time (CEST) Temp. Dew Point Humidity Pressure Visibility Wind Dir Wind Speed Gust Speed Precip Events Conditions
12:00 AM 59.0 °F 55.4 °F 88% 30.06 in - Variable 1.2 mph - N/A   Clear
12:30 AM 59.0 °F 55.4 °F 88% 30.06 in - WNW 3.5 mph - N/A   Clear
1:00 AM 59.0 °F 55.4 °F 88% 30.06 in - Variable 2.3 mph - N/A   Clear
1:30 AM 59.0 °F 55.4 °F 88% 30.06 in - Variable 2.3 mph - N/A   Clear
2:00 AM 59 °F 56 °F 88% 30.08 in - NW 1.2 mph - -  
2:00 AM 59.0 °F 55.4 °F 88% 30.06 in - Variable 3.5 mph - N/A   Clear
2:30 AM 57.2 °F 55.4 °F 94% 30.06 in - Variable 2.3 mph - N/A   Clear
3:00 AM 57.2 °F 55.4 °F 94% 30.06 in - West 3.5 mph - N/A   Clear
3:30 AM 57.2 °F 55.4 °F 94% 30.06 in - Variable 1.2 mph - N/A   Clear
4:00 AM 57.2 °F 55.4 °F 94% 30.06 in - Variable 2.3 mph - N/A   Clear
4:30 AM 57.2 °F 55.4 °F 94% 30.06 in - Variable 1.2 mph - N/A   Clear
5:00 AM 57.2 °F 55.4 °F 94% 30.06 in - Variable 2.3 mph - N/A   Clear
5:30 AM 57.2 °F 55.4 °F 94% 30.06 in - Calm Calm - N/A   Clear
6:00 AM 57.2 °F 55.4 °F 94% 30.06 in - Calm Calm - N/A   Clear
6:30 AM 55.4 °F 53.6 °F 94% 30.04 in - Variable 1.2 mph - N/A   Clear
7:00 AM 55.4 °F 55.4 °F 100% 30.04 in 5.0 mi Variable 2.3 mph - N/A   Unknown
7:30 AM 55.4 °F 53.6 °F 94% 30.04 in 5.0 mi Variable 1.2 mph - N/A   Unknown
8:00 AM 58 °F 56 °F 89% 30.05 in 3 mi Calm Calm - -   Mist
8:00 AM 55.4 °F 55.4 °F 100% 30.04 in 2.8 mi Variable 1.2 mph - N/A Fog Partly Cloudy
8:30 AM 57.2 °F 55.4 °F 94% 30.06 in 2.8 mi Calm Calm - N/A Fog Mostly Cloudy
9:00 AM 59.0 °F 57.2 °F 94% 30.06 in 2.5 mi Calm Calm - N/A Fog Mostly Cloudy
9:30 AM 59.0 °F 57.2 °F 94% 30.06 in 1.9 mi Variable 1.2 mph - N/A Fog Mostly Cloudy
10:00 AM 60.8 °F 57.2 °F 88% 30.06 in 1.9 mi Variable 1.2 mph - N/A Fog Mostly Cloudy
10:30 AM 60.8 °F 57.2 °F 88% 30.06 in 1.9 mi Variable 1.2 mph - N/A Fog Mostly Cloudy
11:00 AM 60.8 °F 57.2 °F 88% 30.06 in 1.9 mi Variable 2.3 mph - N/A Fog Mostly Cloudy
11:30 AM 62.6 °F 57.2 °F 82% 30.06 in 5.6 mi NE 3.5 mph - N/A   Mostly Cloudy
12:00 PM 66.2 °F 59.0 °F 78% 30.06 in 5.6 mi Variable 2.3 mph - N/A   Mostly Cloudy
12:30 PM 68.0 °F 59.0 °F 73% 30.06 in 5.6 mi Calm Calm - N/A   Mostly Cloudy
1:00 PM 66.2 °F 57.2 °F 73% 30.06 in 5.6 mi West 4.6 mph - N/A   Mostly Cloudy
1:30 PM 66.2 °F 59.0 °F 78% 30.06 in 5.6 mi SW 3.5 mph - N/A   Mostly Cloudy
2:00 PM 73 °F 59 °F 53% 30.04 in 9 mi WSW 3.5 mph - -   Mostly Cloudy
2:00 PM 68.0 °F 59.0 °F 73% 30.06 in 6.2 mi Variable 2.3 mph - N/A   Mostly Cloudy
2:30 PM 69.8 °F 59.0 °F 68% 30.06 in 6.2 mi Variable 1.2 mph - N/A   Scattered Clouds
3:00 PM 68.0 °F 59.0 °F 73% 30.06 in 5.6 mi West 4.6 mph - N/A   Partly Cloudy
3:30 PM 66.2 °F 57.2 °F 73% 30.06 in 5.6 mi West 13.8 mph - N/A   Scattered Clouds
4:00 PM 64.4 °F 59.0 °F 83% 30.06 in 5.6 mi West 13.8 mph - N/A   Scattered Clouds
4:30 PM 64.4 °F 59.0 °F 83% 30.06 in 5.6 mi West 13.8 mph - N/A   Scattered Clouds
5:00 PM 64.4 °F 59.0 °F 83% 30.06 in 5.0 mi West 8.1 mph - N/A   Scattered Clouds
5:30 PM 62.6 °F 57.2 °F 82% 30.06 in 5.0 mi West 9.2 mph - N/A   Mostly Cloudy
6:00 PM 66.2 °F 59.0 °F 78% 30.04 in 5.0 mi WSW 3.5 mph - N/A   Mostly Cloudy
6:30 PM 64.4 °F 59.0 °F 83% 30.06 in 5.0 mi West 8.1 mph - N/A   Mostly Cloudy
7:00 PM 64.4 °F 59.0 °F 83% 30.04 in 5.0 mi West 9.2 mph - N/A   Mostly Cloudy
7:30 PM 68.0 °F 59.0 °F 73% 30.04 in 5.0 mi West 8.1 mph - N/A   Mostly Cloudy
8:00 PM 66 °F 59 °F 72% 30.04 in 9 mi West 11.5 mph - -   Mostly Cloudy
8:00 PM 64.4 °F 59.0 °F 83% 30.06 in 6.2 mi West 11.5 mph - N/A   Mostly Cloudy
8:30 PM 62.6 °F 57.2 °F 82% 30.06 in 6.2 mi West 11.5 mph - N/A   Scattered Clouds
9:00 PM 62.6 °F 57.2 °F 82% 30.06 in 6.2 mi West 9.2 mph - N/A   Scattered Clouds
9:30 PM 62.6 °F 57.2 °F 82% 30.06 in 6.2 mi West 8.1 mph - N/A   Scattered Clouds
10:00 PM 60.8 °F 57.2 °F 88% 30.06 in 6.2 mi West 8.1 mph - N/A   Scattered Clouds
10:30 PM 60.8 °F 57.2 °F 88% 30.06 in 6.2 mi WNW 5.8 mph - N/A   Scattered Clouds
11:00 PM 60.8 °F 57.2 °F 88% 30.06 in 6.2 mi West 6.9 mph - N/A   Scattered Clouds
11:30 PM 60.8 °F 57.2 °F 88% 30.06 in 6.2 mi West 6.9 mph - N/A   Scattered Clouds